Airfield :
LOGIN :

Register | Disclaimer

   EN    FR    IT 

 










Legend :    VFR   Marginal VFR   IFR   Intensive IFR   Very Intensive IFR
Visi :
Ceiling :
>= 8 km
>= 3000ft
5 to 8 km
1000 to 3000 ft
1500m to 5 km
500 to 1000 ft
800 to 1500m
200 to 500 ft
< 800m
< 200 ft
Symbols :   Thunderstorms  Fog  Heavy snow  Heavy precipitations  Wind > 20 kt
SIGMETs :     Misc.  Thunderstorms  Icing  Turbulence  Mountain Waves  Volcanic Ashes






- Airport Elevation : 13 ft
- IATA code : CAG


LIEE - Cagliari Elmas

CURRENT METAR :
  • 241450Z 33021G31KT 9999 FEW030 14/06 Q1004

EXPIRED METARs :
  • 241420Z 33019KT 9999 FEW030 14/07 Q1003
  • 241350Z 33020KT 9999 FEW030 14/08 Q1003
  • 241320Z 33018G29KT 9999 FEW030 14/09 Q1002
  • 241250Z 33017G29KT 8000 -RA FEW030 SCT040 14/11 Q1002
  • 241220Z 30021G31KT 8000 -RA SCT040 16/10 Q1001

TAF TAF LIEE
Valid from the 24 at 12:00 until the 25 at 12:00 UTC


241100Z 2412/2512 30022G35KT 9999 SCT040
BECMG 2417/2419 30012KT
BECMG 2423/2401 VRB05KT
BECMG 2509/2511 28015G25KT



MET'MAP, your aeronautical weather chart ! - Copyright ORBIFLY December 2007 - Disclaimer

ORBIFLY MET'MAP TEAM :

Programming & Development : Alexandra Zaïnal
Concept & original design : Baudouin d'Aumeries
Assistance for programming : Marc-Olivier Méhu
Technical & hardware support : Manuel Goepfert

Contact : metmap@orbifly.com




SOURCES & CREDITS :

   NOAA